TOM52D LERS-EGCC

Flight info

Callsign TOM52D
Flight time N/A
Altitude 36000
Route NATPI DCT EVNAM DCT TUPAR UN861 ANG DCT AKIKI UN867 AVANT UM184 HEMEL T420 ELVOS
Aircraft B738/M-SDE2E3FGHIRWXY/LB1

Departure

Time N/A
Airport Reus Airport (LERS)

Arrival

Time 2026-05-04 23:36
Airport Manchester Airport (EGCC)
Time Latitude Longitude Altitude Speed Heading
2026-05-04 23:19 52.66396 -1.27007 20648 ft 349 kts 326°
2026-05-04 23:19 52.68460 -1.29099 20300 ft 347 kts 326°
2026-05-04 23:19 52.70512 -1.31181 20021 ft 344 kts 326°
2026-05-04 23:19 52.72566 -1.33270 19522 ft 349 kts 326°
2026-05-04 23:20 52.74638 -1.35382 19106 ft 351 kts 326°
2026-05-04 23:20 52.76713 -1.37497 18675 ft 350 kts 327°
2026-05-04 23:20 52.78781 -1.39608 18255 ft 349 kts 327°
2026-05-04 23:20 52.80842 -1.41713 17839 ft 348 kts 327°
2026-05-04 23:21 52.82898 -1.43817 17431 ft 347 kts 327°
2026-05-04 23:21 52.84947 -1.45916 17008 ft 346 kts 327°
2026-05-04 23:21 52.86959 -1.47979 16598 ft 345 kts 327°
2026-05-04 23:21 52.88994 -1.50069 16182 ft 343 kts 327°
2026-05-04 23:22 52.91019 -1.52151 15780 ft 342 kts 327°
2026-05-04 23:22 52.93035 -1.54225 15372 ft 340 kts 327°
2026-05-04 23:22 52.95046 -1.56297 14965 ft 339 kts 327°
2026-05-04 23:22 52.97046 -1.58361 14567 ft 337 kts 327°
2026-05-04 23:23 52.99030 -1.60407 14165 ft 335 kts 327°
2026-05-04 23:23 53.01010 -1.62453 13766 ft 334 kts 327°
2026-05-04 23:23 53.02976 -1.64486 13371 ft 332 kts 327°
2026-05-04 23:23 53.04932 -1.66524 12972 ft 330 kts 324°
2026-05-04 23:24 53.06619 -1.69070 12573 ft 326 kts 308°
2026-05-04 23:24 53.08029 -1.71946 12203 ft 324 kts 308°
2026-05-04 23:24 53.09465 -1.74821 11812 ft 322 kts 309°
2026-05-04 23:24 53.10908 -1.77653 11431 ft 320 kts 309°
2026-05-04 23:25 53.12348 -1.80459 11064 ft 318 kts 309°
2026-05-04 23:25 53.13784 -1.83251 10657 ft 316 kts 309°
2026-05-04 23:25 53.15214 -1.86032 10286 ft 315 kts 310°
2026-05-04 23:25 53.16633 -1.88793 9973 ft 311 kts 310°
2026-05-04 23:26 53.18011 -1.91475 9899 ft 300 kts 310°
2026-05-04 23:26 53.19348 -1.94083 9717 ft 292 kts 310°
2026-05-04 23:26 53.20659 -1.96645 9477 ft 288 kts 310°
2026-05-04 23:26 53.21954 -1.99176 9191 ft 286 kts 310°
2026-05-04 23:27 53.23365 -2.01490 8825 ft 286 kts 329°
2026-05-04 23:27 53.25256 -2.02390 8511 ft 287 kts
2026-05-04 23:27 53.27164 -2.01499 8196 ft 287 kts 27°
2026-05-04 23:27 53.28880 -1.99802 7838 ft 287 kts 30°
2026-05-04 23:28 53.30597 -1.98071 7466 ft 288 kts 30°
2026-05-04 23:28 53.32296 -1.96354 7101 ft 289 kts 30°
2026-05-04 23:28 53.34022 -1.94607 6721 ft 290 kts 30°
2026-05-04 23:28 53.35751 -1.92854 6349 ft 291 kts 30°
2026-05-04 23:29 53.37484 -1.91093 5980 ft 291 kts 30°
2026-05-04 23:29 53.39218 -1.89330 5606 ft 292 kts 30°
2026-05-04 23:29 53.40961 -1.87560 5230 ft 293 kts 30°
2026-05-04 23:29 53.42792 -1.86132 4822 ft 289 kts
2026-05-04 23:30 53.44738 -1.86369 4436 ft 279 kts 338°
2026-05-04 23:30 53.46376 -1.88008 4095 ft 271 kts 322°
2026-05-04 23:30 53.47731 -1.90167 3716 ft 267 kts 312°
2026-05-04 23:30 53.48927 -1.92451 3516 ft 256 kts 311°
2026-05-04 23:31 53.49840 -1.94854 3476 ft 236 kts 284°
2026-05-04 23:31 53.49746 -1.97431 3499 ft 215 kts 247°
2026-05-04 23:31 53.48974 -1.99454 3482 ft 199 kts 234°
2026-05-04 23:31 53.48134 -2.01265 3487 ft 196 kts 233°
2026-05-04 23:32 53.47281 -2.03039 3499 ft 195 kts 232°
2026-05-04 23:32 53.46415 -2.04820 3399 ft 198 kts 232°
2026-05-04 23:32 53.45544 -2.06600 3153 ft 196 kts 232°
2026-05-04 23:32 53.44688 -2.08357 2893 ft 194 kts 232°
2026-05-04 23:33 53.43842 -2.10092 2652 ft 190 kts 232°
2026-05-04 23:33 53.43011 -2.11799 2394 ft 188 kts 232°
2026-05-04 23:33 53.42191 -2.13484 2138 ft 184 kts 232°
2026-05-04 23:33 53.41403 -2.15103 1896 ft 173 kts 231°
2026-05-04 23:34 53.40652 -2.16645 1678 ft 170 kts 231°
2026-05-04 23:34 53.39905 -2.18179 1449 ft 168 kts 231°
2026-05-04 23:34 53.39185 -2.19665 1223 ft 160 kts 231°
2026-05-04 23:34 53.38495 -2.21081 1051 ft 154 kts 231°
2026-05-04 23:35 53.37839 -2.22430 815 ft 145 kts 231°
2026-05-04 23:35 53.37206 -2.23735 635 ft 145 kts 231°
2026-05-04 23:35 53.36561 -2.25026 391 ft 144 kts 231°
2026-05-04 23:35 53.35959 -2.26292 264 ft 131 kts 232°
2026-05-04 23:36 53.35493 -2.27249 248 ft 70 kts 230°
2026-05-04 23:36 53.35323 -2.27612 241 ft 26 kts 239°
2026-05-04 23:36 53.35256 -2.27896 237 ft 26 kts 258°
2026-05-04 23:36 53.35235 -2.28120 231 ft 6 kts 259°
2026-05-04 23:37 53.35237 -2.28202 231 ft 10 kts 301°
2026-05-04 23:37 53.35320 -2.28191 233 ft 16 kts 18°
2026-05-04 23:37 53.35416 -2.28165 235 ft 14 kts
2026-05-04 23:37 53.35514 -2.28121 234 ft 15 kts 33°
2026-05-04 23:38 53.35583 -2.27991 237 ft 15 kts 54°
2026-05-04 23:38 53.35659 -2.27888 241 ft 14 kts 12°
2026-05-04 23:38 53.35760 -2.27873 247 ft 16 kts
2026-05-04 23:38 53.35866 -2.27853 253 ft 15 kts
2026-05-04 23:39 53.35967 -2.27877 254 ft 16 kts 326°
2026-05-04 23:39 53.36050 -2.27989 254 ft 15 kts 318°
2026-05-04 23:39 53.36127 -2.28101 254 ft 14 kts 317°
2026-05-04 23:39 53.36194 -2.28219 254 ft 14 kts 314°
2026-05-04 23:40 53.36263 -2.28335 254 ft 16 kts 315°
2026-05-04 23:40 53.36344 -2.28462 254 ft 16 kts 335°
2026-05-04 23:40 53.36428 -2.28392 254 ft 11 kts 43°
2026-05-04 23:40 53.36494 -2.28390 254 ft 11 kts 310°
2026-05-04 23:41 53.36522 -2.28437 254 ft 0 kts 314°
2026-05-04 23:41 53.36527 -2.28447 254 ft 3 kts 314°
2026-05-04 23:41 53.36530 -2.28452 254 ft 0 kts 314°